Hourly Data Report for September 08, 2017

All times are specified in Local Standard Time (LST). Add 1 hour to adjust for Daylight Saving Time where and when it is observed.

EDMUNDSTON
NEW BRUNSWICK

47°25'00.000" N
68°19'28.040" W
154.20 m
8101303
71590
ERM

Download Data

Hourly Data (September 2017)
Hourly Data Report for September 8, 2017
Temp Definition
°C
Dew Point Temp Definition
°C
Rel Hum Definition
%
Wind Dir Definition
10's deg

Wind Spd Definition
km/h
Visibility Definition
km
Stn Press Definition
kPa
Hmdx Definition


Wind Chill Definition


Weather Definition


TIME
00:00 13.4 12.3 94 14 4   98.89     LegendNANA
01:00 13.3 12.1 92 15 7   98.94     LegendNANA
02:00 13.4 11.9 91 13 4   98.96     LegendNANA
03:00 13.2 11.8 91 15 5   99.00     LegendNANA
04:00 12.3 11.0 92 12 4   99.05     LegendNANA
05:00 11.9 11.0 94 0 1   99.10     LegendNANA
06:00 12.2 11.2 94 17 4   99.15     LegendNANA
07:00 11.2 10.1 93 34 3   99.23     LegendNANA
08:00 13.0 10.6 86 30 3   99.32     LegendNANA
09:00 14.2 11.3 83 26 3   99.38     LegendNANA
10:00 15.3 11.5 78 28 7   99.44     LegendNANA
11:00 15.8 11.8 77 35 11   99.48     LegendNANA
12:00 17.2 12.5 74 19 2   99.50     LegendNANA
13:00 15.2 13.6 90 19 5   99.57     LegendNANA
14:00 17.2 11.7 70 25 5   99.58     LegendNANA
15:00 15.8 12.1 79 31 6   99.63     LegendNANA
16:00 16.3 12.0 76 30 5   99.68     LegendNANA
17:00 15.7 12.6 82 0 1   99.71     LegendNANA
18:00 15.1 12.7 86 22 4   99.75     LegendNANA
19:00 13.3 12.0 92   0   99.81     LegendNANA
20:00 12.7 11.8 94   0   99.92     LegendNANA
21:00 12.5 11.6 95 33 3   99.95     LegendNANA
22:00 12.3 11.5 95 27 3   100.00     LegendNANA
23:00 11.5 10.7 95 32 6   100.02     LegendNANA

Notes on Data Quality.

Legend

  • E = Estimated
  • M = Missing
  • NA = Not Available
  • ‡ = Partner data that is not subject to review by the National Climate Archives
Date modified: